| time (UTC) | temp F | wind direction | speed MPH | gust MPH | rain 1hr in | rain 24hr in | rain mn in | humidity % | barometer mb |
| 20260504190710 | 70 | 56 | 4.0 | 12.0 | 0.00 | 0.00 | 0.00 | 91 | 951.7 |
| 20260504190209 | 70 | 64 | 5.0 | 12.0 | 0.00 | 0.00 | 0.00 | 89 | 951.6 |
| 20260504185708 | 70 | 52 | 4.0 | 12.0 | 0.00 | 0.00 | 0.00 | 90 | 951.5 |
| 20260504184651 | 70 | 74 | 5.0 | 13.0 | 0.00 | 0.00 | 0.00 | 89 | 951.7 |
| 20260504184150 | 70 | 74 | 4.0 | 13.0 | 0.00 | 0.00 | 0.00 | 90 | 952.0 |
| 20260504182617 | 68 | 47 | 3.0 | 13.0 | 0.00 | 0.00 | 0.00 | 93 | 951.7 |
| 20260504182116 | 68 | 84 | 5.0 | 13.0 | 0.00 | 0.00 | 0.00 | 92 | 951.6 |
| 20260504181614 | 68 | 102 | 6.0 | 13.0 | 0.00 | 0.00 | 0.00 | 92 | 951.9 |
| 20260504180557 | 67 | 101 | 4.0 | 13.0 | 0.00 | 0.00 | 0.00 | 94 | 951.9 |
| 20260504175540 | 67 | 103 | 5.0 | 13.0 | 0.00 | 0.00 | 0.00 | 93 | 951.6 |
| 20260504175039 | 67 | 90 | 5.0 | 13.0 | 0.00 | 0.00 | 0.00 | 92 | 951.7 |
| 20260504174537 | 67 | 69 | 4.0 | 13.0 | 0.00 | 0.00 | 0.00 | 92 | 951.7 |
| 20260504173520 | 66 | 80 | 4.0 | 13.0 | 0.00 | 0.00 | 0.00 | 93 | 951.7 |
| 20260504173019 | 66 | 96 | 4.0 | 13.0 | 0.00 | 0.00 | 0.00 | 93 | 951.7 |
| 20260504172518 | 66 | 80 | 4.0 | 13.0 | 0.00 | 0.00 | 0.00 | 94 | 951.4 |
| 20260504172017 | 66 | 62 | 3.0 | 13.0 | 0.00 | 0.00 | 0.00 | 94 | 951.6 |
| 20260504171516 | 66 | 49 | 3.0 | 13.0 | 0.00 | 0.00 | 0.00 | 94 | 951.2 |
| 20260504171015 | 66 | 69 | 2.0 | 13.0 | 0.00 | 0.00 | 0.00 | 94 | 951.3 |
| 20260504170514 | 65 | 66 | 1.0 | 13.0 | 0.00 | 0.00 | 0.00 | 95 | 951.3 |
| 20260504150920 | 64 | 30 | 7.0 | 13.0 | 0.00 | 0.00 | 0.00 | 96 | 949.3 |
| 20260504140822 | 63 | 45 | 6.0 | 14.0 | 0.00 | 0.00 | 0.00 | 96 | 949.0 |
| 20260504140320 | 63 | 46 | 5.0 | 14.0 | 0.00 | 0.00 | 0.00 | 95 | 949.2 |
| 20260504130723 | 63 | 37 | 7.0 | 12.0 | 0.00 | 0.00 | 0.00 | 97 | 949.0 |
| 20260504130222 | 63 | 34 | 7.0 | 12.0 | 0.00 | 0.00 | 0.00 | 97 | 949.2 |
| 20260504120207 | 63 | 47 | 6.0 | 12.0 | 0.00 | 0.00 | 0.00 | 97 | 950.0 |
| 20260504110652 | 63 | 51 | 4.0 | 13.0 | 0.00 | 0.00 | 0.00 | 97 | 950.3 |
| 20260504110151 | 63 | 53 | 4.0 | 13.0 | 0.00 | 0.00 | 0.00 | 97 | 950.5 |
| 20260504100524 | 63 | 45 | 5.0 | 13.0 | 0.00 | 0.00 | 0.00 | 96 | 950.8 |
| 20260504081830 | 63 | 47 | 5.0 | 18.0 | 0.00 | 0.00 | 0.00 | 95 | 951.4 |
| 20260504081329 | 63 | 44 | 8.0 | 18.0 | 0.00 | 0.00 | 0.00 | 95 | 951.2 |
| 20260504080827 | 63 | 51 | 5.0 | 18.0 | 0.00 | 0.00 | 0.00 | 95 | 951.0 |
| 20260504070159 | 63 | 51 | 6.0 | 15.0 | 0.00 | 0.00 | 0.00 | 96 | 951.1 |
| 20260504045515 | 63 | 24 | 5.0 | 13.0 | 0.00 | 0.00 | 0.00 | 93 | 949.9 |
| 20260504045015 | 63 | 27 | 8.0 | 13.0 | 0.00 | 0.00 | 0.00 | 94 | 950.0 |
| 20260504044514 | 63 | 29 | 5.0 | 13.0 | 0.00 | 0.00 | 0.00 | 94 | 949.9 |
| 20260504044012 | 63 | 40 | 5.0 | 13.0 | 0.00 | 0.00 | 0.00 | 94 | 949.9 |
| 20260504043511 | 63 | 38 | 5.0 | 13.0 | 0.00 | 0.00 | 0.00 | 94 | 950.1 |
| 20260504043010 | 63 | 30 | 5.0 | 13.0 | 0.00 | 0.00 | 0.00 | 94 | 949.8 |
| 20260504042509 | 63 | 35 | 6.0 | 13.0 | 0.00 | 0.00 | 0.00 | 93 | 949.6 |
| 20260504042009 | 63 | 31 | 7.0 | 13.0 | 0.00 | 0.00 | 0.00 | 93 | 949.6 |
| 20260504041507 | 63 | 32 | 6.0 | 13.0 | 0.00 | 0.00 | 0.00 | 93 | 949.7 |
| 20260504041007 | 63 | 41 | 6.0 | 13.0 | 0.00 | 0.00 | 0.00 | 93 | 949.5 |
| 20260504040505 | 63 | 39 | 7.0 | 13.0 | 0.00 | 0.00 | 0.00 | 93 | 949.4 |
| 20260504040005 | 64 | 46 | 5.0 | 13.0 | 0.00 | 0.00 | 0.00 | 93 | 949.6 |
| 20260504035504 | 64 | 39 | 7.0 | 13.0 | 0.00 | 0.00 | 0.00 | 93 | 949.5 |
| 20260504035002 | 65 | 46 | 5.0 | 12.0 | 0.00 | 0.00 | 0.00 | 92 | 949.5 |
| 20260504034501 | 65 | 37 | 4.0 | 12.0 | 0.00 | 0.00 | 0.00 | 92 | 949.8 |
| 20260504034000 | 66 | 38 | 4.0 | 12.0 | 0.00 | 0.00 | 0.00 | 92 | 949.4 |
| 20260504033458 | 66 | 36 | 5.0 | 13.0 | 0.00 | 0.00 | 0.00 | 92 | 949.0 |
| 20260504032957 | 66 | 36 | 5.0 | 13.0 | 0.00 | 0.00 | 0.00 | 92 | 949.0 |
| 20260504032457 | 66 | 37 | 7.0 | 13.0 | 0.00 | 0.00 | 0.00 | 90 | 949.0 |
| 20260504031956 | 67 | 35 | 8.0 | 13.0 | 0.00 | 0.00 | 0.00 | 90 | 949.0 |
| 20260504031455 | 67 | 32 | 5.0 | 13.0 | 0.00 | 0.00 | 0.00 | 90 | 948.9 |
| 20260504030954 | 67 | 17 | 5.0 | 13.0 | 0.00 | 0.00 | 0.00 | 89 | 949.1 |
| 20260504025937 | 67 | 31 | 5.0 | 13.0 | 0.00 | 0.00 | 0.00 | 88 | 948.9 |
| 20260504025436 | 67 | 28 | 7.0 | 13.0 | 0.00 | 0.00 | 0.00 | 88 | 948.9 |
| 20260504024935 | 67 | 28 | 6.0 | 13.0 | 0.00 | 0.00 | 0.00 | 88 | 948.7 |
| 20260504024434 | 68 | 39 | 5.0 | 13.0 | 0.00 | 0.00 | 0.00 | 89 | 948.8 |
| 20260504023933 | 69 | 37 | 7.0 | 12.0 | 0.00 | 0.00 | 0.00 | 88 | 948.7 |
| 20260504023432 | 69 | 37 | 5.0 | 12.0 | 0.00 | 0.00 | 0.00 | 88 | 948.7 |
| 20260504022931 | 69 | 40 | 6.0 | 12.0 | 0.00 | 0.00 | 0.00 | 86 | 948.7 |
| 20260504022430 | 70 | 38 | 6.0 | 12.0 | 0.00 | 0.00 | 0.00 | 85 | 948.9 |
| 20260504021929 | 70 | 35 | 6.0 | 12.0 | 0.00 | 0.00 | 0.00 | 83 | 948.9 |
| 20260504021428 | 70 | 32 | 5.0 | 14.0 | 0.00 | 0.00 | 0.00 | 83 | 948.9 |
| 20260504020927 | 70 | 32 | 5.0 | 14.0 | 0.00 | 0.00 | 0.00 | 83 | 949.2 |
| 20260504020426 | 70 | 24 | 5.0 | 14.0 | 0.00 | 0.00 | 0.00 | 82 | 949.3 |
| 20260504015925 | 70 | 28 | 5.0 | 14.0 | 0.00 | 0.00 | 0.00 | 83 | 949.1 |
| 20260504015424 | 70 | 29 | 5.0 | 14.0 | 0.00 | 0.00 | 0.00 | 82 | 949.1 |
| 20260504014923 | 71 | 31 | 4.0 | 14.0 | 0.00 | 0.00 | 0.00 | 83 | 949.4 |
| 20260504014421 | 70 | 43 | 7.0 | 14.0 | 0.00 | 0.00 | 0.00 | 81 | 949.2 |
| 20260504013920 | 71 | 29 | 6.0 | 14.0 | 0.00 | 0.00 | 0.00 | 83 | 949.3 |
| 20260504012346 | 71 | 38 | 5.0 | 12.0 | 0.00 | 0.00 | 0.00 | 84 | 949.1 |
| 20260504011845 | 70 | 37 | 4.0 | 12.0 | 0.00 | 0.00 | 0.00 | 87 | 949.4 |
| 20260504011343 | 69 | 32 | 5.0 | 12.0 | 0.00 | 0.00 | 0.00 | 87 | 949.3 |
| 20260504010842 | 69 | 15 | 3.0 | 12.0 | 0.00 | 0.00 | 0.00 | 86 | 949.2 |
| 20260504010341 | 69 | 34 | 4.0 | 12.0 | 0.00 | 0.00 | 0.00 | 86 | 949.3 |
| 20260504005840 | 69 | 33 | 5.0 | 12.0 | 0.00 | 0.00 | 0.00 | 85 | 949.3 |
| 20260504004823 | 70 | 31 | 4.0 | 13.0 | 0.00 | 0.00 | 0.00 | 83 | 949.5 |
| 20260504004322 | 71 | 50 | 6.0 | 13.0 | 0.00 | 0.00 | 0.00 | 82 | 949.2 |
| 20260504003305 | 72 | 47 | 7.0 | 13.0 | 0.00 | 0.00 | 0.00 | 83 | 949.3 |
| 20260504002804 | 72 | 62 | 6.0 | 12.0 | 0.00 | 0.00 | 0.00 | 84 | 949.1 |
| 20260504002304 | 72 | 46 | 6.0 | 12.0 | 0.00 | 0.00 | 0.00 | 84 | 949.1 |
| 20260504001802 | 72 | 39 | 6.0 | 12.0 | 0.00 | 0.00 | 0.00 | 85 | 949.1 |
| 20260504001300 | 72 | 45 | 6.0 | 12.0 | 0.00 | 0.00 | 0.00 | 83 | 949.3 |
| 20260504000759 | 73 | 46 | 6.0 | 12.0 | 0.00 | 0.00 | 0.00 | 85 | 949.3 |
| 20260504000258 | 73 | 28 | 5.0 | 11.0 | 0.00 | 0.00 | 0.00 | 82 | 949.1 |
| 20260503235757 | 73 | 31 | 4.0 | 11.0 | 0.00 | 0.00 | 0.00 | 83 | 949.3 |
| 20260503235256 | 73 | 44 | 5.0 | 13.0 | 0.00 | 0.00 | 0.00 | 84 | 949.2 |
| 20260503234755 | 72 | 48 | 6.0 | 13.0 | 0.00 | 0.00 | 0.00 | 85 | 949.3 |
| 20260503234254 | 72 | 41 | 5.0 | 11.0 | 0.00 | 0.00 | 0.00 | 84 | 949.4 |
| 20260503233753 | 71 | 26 | 5.0 | 13.0 | 0.00 | 0.00 | 0.00 | 87 | 949.6 |
| 20260503233252 | 71 | 35 | 5.0 | 13.0 | 0.00 | 0.00 | 0.00 | 86 | 949.6 |
| 20260503232751 | 70 | 33 | 5.0 | 13.0 | 0.00 | 0.00 | 0.00 | 86 | 949.4 |
| 20260503232249 | 70 | 47 | 6.0 | 13.0 | 0.00 | 0.00 | 0.00 | 84 | 949.6 |
| 20260503231748 | 71 | 51 | 6.0 | 13.0 | 0.00 | 0.00 | 0.00 | 83 | 949.7 |
| 20260503231247 | 72 | 38 | 6.0 | 13.0 | 0.00 | 0.00 | 0.00 | 83 | 949.5 |
| 20260503230746 | 72 | 42 | 5.0 | 14.0 | 0.00 | 0.00 | 0.00 | 84 | 949.9 |
| 20260503230244 | 72 | 47 | 5.0 | 14.0 | 0.00 | 0.00 | 0.00 | 84 | 949.8 |
| 20260503225743 | 72 | 46 | 7.0 | 14.0 | 0.00 | 0.00 | 0.00 | 85 | 949.5 |
| 20260503224726 | 72 | 47 | 6.0 | 14.0 | 0.00 | 0.00 | 0.00 | 83 | 949.8 |
| 20260503224225 | 72 | 29 | 6.0 | 18.0 | 0.00 | 0.00 | 0.00 | 82 | 949.8 |
| 20260503223724 | 73 | 51 | 5.0 | 18.0 | 0.00 | 0.00 | 0.00 | 81 | 949.8 |
| 20260503223222 | 73 | 31 | 6.0 | 18.0 | 0.00 | 0.00 | 0.00 | 82 | 949.9 |
| 20260503222721 | 73 | 35 | 6.0 | 13.0 | 0.00 | 0.00 | 0.00 | 82 | 950.1 |
| 20260503222220 | 73 | 34 | 6.0 | 13.0 | 0.00 | 0.00 | 0.00 | 83 | 950.0 |
| 20260503220647 | 73 | 46 | 6.0 | 12.0 | 0.00 | 0.00 | 0.00 | 82 | 950.2 |
| 20260503220146 | 73 | 40 | 5.0 | 12.0 | 0.00 | 0.00 | 0.00 | 83 | 949.9 |
| 20260503215645 | 73 | 34 | 7.0 | 12.0 | 0.00 | 0.00 | 0.00 | 81 | 950.3 |
| 20260503214628 | 73 | 35 | 6.0 | 13.0 | 0.00 | 0.00 | 0.00 | 82 | 950.4 |
| 20260503214127 | 72 | 25 | 4.0 | 13.0 | 0.00 | 0.00 | 0.00 | 84 | 950.4 |
| 20260503213626 | 73 | 41 | 6.0 | 13.0 | 0.00 | 0.00 | 0.00 | 81 | 950.3 |
| 20260503213125 | 73 | 45 | 7.0 | 12.0 | 0.00 | 0.00 | 0.00 | 81 | 950.4 |
| 20260503212623 | 73 | 29 | 5.0 | 12.0 | 0.00 | 0.00 | 0.00 | 81 | 950.5 |
| 20260503212122 | 73 | 40 | 5.0 | 11.0 | 0.00 | 0.00 | 0.00 | 82 | 950.4 |
| 20260503211621 | 73 | 29 | 6.0 | 14.0 | 0.00 | 0.00 | 0.00 | 81 | 950.6 |
| 20260503211120 | 73 | 41 | 5.0 | 14.0 | 0.00 | 0.00 | 0.00 | 83 | 950.6 |
| 20260503210103 | 72 | 41 | 7.0 | 14.0 | 0.00 | 0.00 | 0.00 | 82 | 950.2 |
| 20260503205602 | 72 | 34 | 7.0 | 12.0 | 0.00 | 0.00 | 0.00 | 81 | 950.4 |
| 20260503204545 | 72 | 34 | 7.0 | 12.0 | 0.00 | 0.00 | 0.00 | 82 | 950.7 |
| 20260503204045 | 72 | 35 | 4.0 | 14.0 | 0.00 | 0.00 | 0.00 | 84 | 950.5 |
| 20260503203543 | 71 | 41 | 8.0 | 14.0 | 0.00 | 0.00 | 0.00 | 82 | 950.4 |
| 20260503203042 | 71 | 43 | 9.0 | 14.0 | 0.00 | 0.00 | 0.00 | 82 | 950.3 |
| 20260503202541 | 71 | 36 | 8.0 | 14.0 | 0.00 | 0.00 | 0.00 | 83 | 950.5 |
| 20260503202040 | 71 | 38 | 7.0 | 14.0 | 0.00 | 0.00 | 0.00 | 84 | 950.5 |
| 20260503201539 | 71 | 46 | 8.0 | 14.0 | 0.00 | 0.00 | 0.00 | 84 | 950.6 |
| 20260503200522 | 70 | 47 | 6.0 | 14.0 | 0.00 | 0.00 | 0.00 | 86 | 950.5 |
| 20260503200021 | 70 | 41 | 8.0 | 14.0 | 0.00 | 0.00 | 0.00 | 85 | 950.3 |
| 20260503195520 | 70 | 37 | 8.0 | 14.0 | 0.00 | 0.00 | 0.00 | 86 | 950.6 |
| 20260503194503 | 69 | 42 | 8.0 | 15.0 | 0.00 | 0.00 | 0.00 | 87 | 950.6 |
| 20260503194002 | 69 | 43 | 8.0 | 16.0 | 0.00 | 0.00 | 0.00 | 88 | 950.3 |
| 20260503193501 | 68 | 38 | 8.0 | 16.0 | 0.00 | 0.00 | 0.00 | 88 | 950.6 |
| 20260503193000 | 68 | 44 | 8.0 | 14.0 | 0.00 | 0.00 | 0.00 | 89 | 950.2 |
| 20260503192500 | 68 | 42 | 8.0 | 14.0 | 0.00 | 0.00 | 0.00 | 90 | 950.4 |
| 20260503191958 | 68 | 43 | 6.0 | 14.0 | 0.00 | 0.00 | 0.00 | 92 | 950.3 |
| 20260503191456 | 67 | 49 | 6.0 | 15.0 | 0.00 | 0.00 | 0.00 | 92 | 950.2 |
| 20260503190955 | 67 | 50 | 8.0 | 15.0 | 0.00 | 0.00 | 0.00 | 91 | 950.4 |